Location: Bühlhof
(48.7849°N, 8.6361°E)
Time: 23:11:42
(UTC+00:00)

NOSS 2-1 (D) - Pass Details

Date: 19 January 2026
Orbit: 374 x 1675 km, 63.3° (Epoch: 7 February)

Event Time Altitude Azimuth Distance (km) Brightness Sun altitude
Rises 17:04:14 0° 323° (NW) 2,309 6.8 -10.0°
Reaches altitude 10° 17:06:12 10° 332° (NNW) 1,516 5.7 -10.3°
Maximum altitude 17:09:17 38° 43° (NE) 750 3.6 -10.8°
Drops below altitude 10° 17:13:09 10° 113° (ESE) 1,906 5.6 -11.4°
Enters shadow 17:13:40 - 115° (ESE) 2,113 5.9 -11.5°
